Location: Courcelles
(49.2596°N, 1.7419°E)
Time: 03:12:08
(UTC+00:00)

SMAP - Pass Details

Date: 17 November 2025
Orbit: 681 x 683 km, 98.1° (Epoch: 04 December)

Event Time Altitude Azimuth Distance (km) Brightness Sun altitude
Rises 17:35:44 0° 179° (S) 3,033 6.6 -14.0°
Reaches altitude 10° 17:38:02 10° 185° (S) 2,122 5.8 -14.4°
Maximum altitude 17:42:32 50° 260° (W) 873 4.1 -15.1°
Drops below altitude 10° 17:47:05 10° 336° (NNW) 2,137 5.8 -15.8°
Sets 17:49:24 0° 342° (NNW) 3,058 6.5 -16.2°
